Showing default

VRSS-2, 42954

Orbit data source: Space-Track

VRSS-2, 42954 is a payload satellite owned by ABAE (VE) in SSO that was launched on Mon, 09 Oct 2017 UTC via a CHANG ZHENG 2D launch vehicle from the Jiuquan Satellite Launch Center, China (JSC). Payload-class satellites include a variety of spacecraft equipped with specific instruments for various scientific and technological missions. These include communications satellites like Starlink; space stations such as the ISS; scientific satellites like the Hubble; Earth observation satellites from companies like Planet Labs, Umbra, and HawkEye 360; GPS; miniature CubeSats for education and research; and military/defense satellites.

Loading next visibility...
Identifier
42954, 2017-060A
Orbit
SSO
Last TLE update
5 hours ago
Origin
Manufacturer
DFH
Mission
Operational Civil Imaging
Bus & Motor
CAST-2000, AOCS
Mass
942 kg wet, ~900 kg dry
Launch date (UTC)
2017-10-09 (8 years ago)
Launch vehicle
CHANG ZHENG 2D
Launch site
Jiuquan Satellite Launch Center, China (JSC)
Object type
Payload
Rocket body
Debris
Shape & HBR
Box + 2 Pan, 7.9 m
Radar Cross Section
8.358 m², Large (>1 m²)

Expand to show TLE details & history

TLE from 5 hours ago
0 VRSS-2
1 42954U 17060A   25186.53943558  .00000721  00000-0  10081-3 0  9995
2 42954  97.7003 234.0712 0018167 148.5609 211.6693 14.80346822417151
Epoch: 2025-07-05T12:56Z
TLE epoch observation values (Epoch: 2025-07-05T12:56:47.234Z)
Latitude
-0.00005°
Longitude
116.09837°
Altitude
642.099 km
Speed
7.531 km/s
True Right ascension
15h 36m 17s
True Declination
0° 00' 00"
Sunlit
Object was in full shadow at epoch
Visualization orbit readout
Latitude
5.10255°
Longitude
115.60582°
Altitude
640.852 km
Speed
7.533 km/s
Apparent Right ascension
16h 28m 05s
Apparent Declination
-16° 48' 36"
Sunlit
Object is in full shadow
Visualization observer readout
Local Sidereal Time
05:45:36
Azimuth
41.612° NE
Elevation
-61.424°
Doppler factor
1
Orbital elements
Apogee altitude
637.984 km
Perigee altitude
612.538 km
Semi-major axis
7,003.398 km
Eccentricity
0.00182
Inclination
97.7003°
RAAN
234.0712°
Arg. of periapsis
148.5609°
True anomaly
Unknown
Mean anomaly
211.6693°
Eccentric anomaly
Unknown
Mean motion
3.70322 °/min
Orbital period
97.21 mins
BSTAR
0.00010081
Loading maneuver chart data...
Loading SW <> Apogee altitude chart data...
Loading historical data...
Loading historical data...
Loading historical data...
Loading historical data...
Loading historical data...
Loading historical data...
Loading historical data...
Other satellites on launch #60 in the year 2017 (2017-10-09 UTC)

VRSS-2 Visibility forecast

Observer location: undefined°, undefined°

Span
Click to sort rows by Start time (UTC) header in descending order
Start Az.
Max El. time (UTC)
Max El. Az.
Max El.
End time (UTC)
End Az.
5 mins2025-07-06 02:05:10.652Z100.518° ESE2025-07-06 02:07:10.652Z71.094° E16.099°2025-07-06 02:10:10.652Z26.873° NE
6 mins2025-07-06 03:41:10.652Z203.114° SW2025-07-06 03:43:10.652Z251.433° W34.102°2025-07-06 03:47:10.652Z331.742° NNW
5 mins2025-07-06 15:30:10.652Z49.176° ENE2025-07-06 15:32:10.652Z98.119° ESE29.695°2025-07-06 15:35:10.652Z157.449° SSE
5 mins2025-07-06 17:06:10.652Z327.119° NNW2025-07-06 17:08:10.652Z293.357° NW18.429°2025-07-06 17:11:10.652Z247.81° W
|